Location: Avenches
(46.8809°N, 7.0410°E)
Time: 13:32:55
(UTC+00:00)

Envisat - Visible Passes

Search period start: 08 March 2021 00:00
Search period end: 18 March 2021 00:00
Orbit: 764 x 766 km, 98.1° (Epoch: 07 March)

Date Brightness Start Highest point End Pass type
(mag) Time Alt. Az. Time Alt. Az. Time Alt. Az.
08 Mar 3.3 05:14:02 10° NNE 05:19:08 76° ESE 05:24:13 10° S visible
09 Mar 4.7 04:37:29 10° NNE 04:42:11 36° E 04:46:50 10° SSE visible
10 Mar 5.9 04:01:37 10° NE 04:05:02 18° E 04:08:24 10° SE visible
11 Mar 3.7 05:02:38 10° NNE 05:07:41 61° E 05:12:42 10° S visible
11 Mar 6.8 18:04:03 10° W 18:04:55 10° W 18:05:48 10° WNW visible
12 Mar 5.1 04:26:15 10° NE 04:30:40 29° E 04:35:04 10° SSE visible
13 Mar 6.0 03:50:47 10° NE 03:53:27 14° E 03:56:05 10° ESE visible
14 Mar 4.1 04:51:17 10° NNE 04:56:13 49° E 05:01:08 10° S visible
15 Mar 5.5 04:15:04 10° NE 04:19:08 24° E 04:23:11 10° SE visible
16 Mar 6.3 03:40:28 10° ENE 03:41:51 11° E 03:43:13 10° E visible
17 Mar 4.6 04:39:57 10° NNE 04:44:44 39° E 04:49:28 10° SSE visible
